Probability
0 0 0 0 0 0 0 0 0 0 0 0 0 3 6 6 6 10 10 6 10 6 6 3 3 3 0 0 0 0 0 0 0 0 0 0 0 0 0 0 0 0 0 0
0 0 0 0 0 0 0 0 0 0 0 0 0 3 6 6 10 10 10 6 6 3 0 0 0 0 0 0 0 0 0 0 0 0 0 0 0 0 0 0 0 0 0 0
0 0 0 0 0 0 0 0 0 0 0 0 3 3 3 6 10 10 10 6 3 0 0 0 0 0 0 0 0 0 0 0 0 0 0 0 0 0 0 0 0 0 0 0
0 0 0 0 0 0 0 0 0 0 0 0 0 0 0 3 6 10 6 3 3 0 0 0 0 0 0 0 0 0 0 0 0 0 0 0 0 0 0 0 0 0 0 0
0 0 0 0 0 0 0 0 0 0 0 0 0 0 0 3 3 6 3 3 0 0 0 0 3 3 0 0 0 0 0 0 0 0 0 0 0 0 0 0 0 0 0 0
0 0 0 0 0 0 0 0 0 0 0 0 0 3 3 3 3 3 3 3 0 0 0 3 3 0 0 0 0 0 0 0 0 0 0 0 0 0 0 0 0 0 0 0
0 0 0 0 0 0 0 0 0 0 0 0 0 0 0 3 3 3 3 0 0 0 3 3 0 0 0 0 0 0 0 0 0 0 0 0 0 0 0 0 0 0 0 0
0 0 0 0 0 0 0 0 0 0 0 0 0 0 0 3 3 3 0 0 0 3 3 0 0 0 0 0 0 0 0 0 0 0 0 0 0 0 0 0 0 0 0 0
0 0 0 0 0 0 0 0 0 0 0 0 0 0 0 3 3 0 0 0 0 0 0 0 0 0 0 0 0 0 0 0 0 0 0 0 0 0 0 0 0 0 0 0
0 0 0 0 0 0 0 0 0 0 0 0 0 0 0 0 0 0 0 0 0 0 0 0 0 0 0 0 0 0 0 0 0 0 0 0 0 0 0 0 0 0 0 0
0 0 0 0 0 0 0 0 0 0 0 0 0 0 0 0 0 0 0 0 0 0 0 0 0 0 0 0 0 0 0 0 0 0 0 0 0 0 0 0 0 0 0 0
0 0 0 0 0 0 0 0 0 0 0 0 0 0 0 0 0 0 0 0 0 0 0 0 0 0 0 0 0 0 0 0 0 0 0 0 0 0 0 0 0 0 0 0
0 0 0 0 0 0 0 0 0 0 0 0 0 0 0 0 0 0 0 0 0 0 0 0 0 0 0 0 0 0 0 0 0 0 0 0 0 0 0 0 0 0 0 0
0 0 0 0 0 0 0 0 0 0 0 0 0 0 0 0 0 0 0 0 0 0 0 0 0 0 0 0 0 0 0 0 0 0 0 0 0 0 0 0 0 0 0 0
0 0 0 0 0 0 0 0 0 0 0 0 0 0 0 0 0 0 0 0 0 0 0 0 0 0 0 0 0 0 0 0 0 0 0 0 0 0 0 0 0 0 0 0
0 0 0 0 0 0 0 0 0 0 0 0 0 0 0 0 0 0 0 0 0 0 0 0 0 0 0 0 0 0 0 0 0 0 0 0 0 0 0 0 0 0 0 0
0 0 0 0 0 0 0 0 0 0 0 0 0 0 0 0 0 0 0 0 0 0 0 0 0 0 0 0 0 0 0 0 0 0 0 0 0 0 0 0 0 0 0 0
0 0 0 0 0 0 0 0 0 0 0 0 0 0 0 0 0 0 0 0 0 0 0 0 0 0 0 0 0 0 0 0 0 0 0 0 0 0 0 0 0 0 0 0
0 0 0 0 0 0 0 0 0 0 0 0 0 0 0 0 0 0 0 0 0 0 0 0 0 0 0 0 0 0 0 0 0 0 0 0 0 0 0 0 0 0 0 0
0 0 0 0 0 0 0 0 0 0 0 0 0 0 0 0 0 0 0 0 0 0 0 0 0 0 0 0 0 0 0 0 0 0 0 0 0 0 0 0 0 0 0 0
0 0 0 0 0 0 0 0 0 0 0 0 0 0 0 0 0 0 0 0 0 0 0 0 0 0 0 0 0 0 0 0 0 0 0 0 0 0 0 0 0 0 0 0
0 0 0 0 0 0 0 0 0 0 0 0 0 0 0 0 0 0 0 0 0 0 0 0 0 0 0 0 0 0 0 0 0 0 0 0 0 0 0 0 0 0 0 0
0 0 0 0 0 0 0 0 0 0 0 0 0 0 0 0 0 0 0 0 0 0 0 0 0 0 0 0 0 0 0 0 0 0 0 0 0 0 0 0 0 0 0 0
0 0 0 0 0 0 0 0 0 0 0 0 0 0 0 0 0 0 0 0 0 0 0 0 0 0 0 0 0 0 0 0 0 0 0 0 0 0 0 0 0 0 0 0
0 0 0 0 0 0 0 0 0 0 0 0 0 0 0 0 0 0 0 0 0 0 0 0 0 0 0 0 0 0 0 0 0 0 0 0 0 0 0 0 0 0 0 0
0 0 0 0 0 0 0 0 0 0 0 0 0 0 0 0 0 0 0 0 0 0 0 0 0 0 0 0 0 0 0 0 0 0 0 0 0 0 0 0 0 0 0 0
0 0 0 0 0 0 0 0 0 0 0 0 0 0 0 0 0 0 0 0 0 0 0 0 0 0 0 0 0 0 0 0 0 0 0 0 0 0 0 0 0 0 0 0
Height
5820 5820 5819 5818 5818 5817 5816 5814 5812 5811 5810 5809 5807 5806 5804 5802 5800 5798 5796 5793 5791 5788 5785 5783 5780 5777 5775 5772 5770 5766 5763 5760 5757 5754 5751 5748 5745 5742 5739 5736 5733 5730 5728 5725
5813 5813 5812 5812 5812 5810 5809 5808 5807 5806 5804 5803 5801 5800 5798 5797 5795 5793 5791 5789 5787 5784 5781 5779 5776 5774 5771 5769 5766 5763 5760 5757 5754 5752 5749 5746 5743 5740 5737 5734 5731 5728 5725 5723
5805 5806 5805 5806 5806 5804 5802 5801 5800 5799 5799 5797 5796 5794 5793 5792 5790 5788 5786 5784 5783 5780 5777 5775 5772 5770 5768 5765 5763 5760 5758 5755 5752 5750 5747 5744 5741 5738 5735 5732 5729 5726 5723 5721
5797 5798 5797 5801 5799 5797 5795 5795 5793 5792 5792 5791 5790 5789 5788 5787 5785 5783 5781 5779 5778 5776 5773 5771 5768 5766 5764 5762 5760 5758 5755 5753 5750 5748 5746 5743 5740 5737 5734 5731 5728 5725 5722 5719
5790 5789 5790 5792 5791 5790 5789 5788 5787 5787 5786 5786 5784 5784 5783 5782 5780 5778 5776 5774 5773 5771 5769 5767 5765 5763 5761 5759 5757 5755 5753 5751 5748 5746 5744 5741 5738 5735 5733 5730 5727 5724 5721 5718
5783 5782 5782 5786 5785 5783 5783 5782 5782 5781 5781 5780 5780 5780 5779 5777 5775 5774 5772 5770 5768 5767 5765 5763 5762 5760 5758 5757 5755 5752 5750 5748 5746 5744 5742 5739 5737 5734 5731 5728 5726 5723 5720 5717
5776 5775 5775 5777 5777 5777 5777 5777 5776 5776 5775 5775 5775 5774 5774 5773 5771 5769 5768 5766 5764 5763 5762 5760 5759 5757 5756 5754 5752 5750 5748 5746 5744 5742 5740 5738 5735 5733 5730 5727 5725 5722 5719 5716
5768 5768 5771 5770 5769 5770 5769 5768 5769 5770 5770 5769 5769 5769 5769 5768 5767 5766 5764 5762 5761 5760 5758 5757 5756 5755 5753 5751 5750 5748 5746 5745 5743 5741 5739 5736 5734 5731 5729 5726 5723 5721 5718 5715
5762 5763 5763 5762 5762 5762 5762 5762 5763 5763 5764 5764 5765 5765 5765 5764 5763 5762 5761 5759 5758 5757 5755 5755 5753 5752 5751 5749 5748 5746 5745 5743 5741 5740 5738 5735 5733 5730 5728 5725 5722 5720 5717 5715
5754 5755 5756 5755 5755 5755 5755 5755 5756 5758 5759 5760 5760 5761 5761 5760 5760 5759 5757 5757 5755 5754 5753 5752 5751 5750 5749 5747 5746 5744 5743 5742 5740 5739 5737 5735 5732 5730 5727 5725 5722 5719 5717 5714
5747 5749 5748 5749 5749 5749 5749 5750 5751 5752 5754 5755 5755 5756 5757 5756 5756 5755 5754 5754 5753 5752 5751 5750 5749 5748 5747 5746 5744 5743 5742 5741 5739 5738 5736 5734 5732 5729 5727 5724 5721 5719 5716 5714
5740 5741 5740 5742 5743 5743 5743 5744 5746 5747 5749 5750 5751 5751 5752 5752 5753 5752 5752 5751 5751 5750 5750 5748 5747 5746 5745 5744 5743 5742 5741 5740 5739 5737 5735 5733 5731 5729 5726 5724 5721 5718 5715 5713
5733 5733 5733 5734 5736 5737 5738 5739 5741 5742 5744 5746 5747 5747 5748 5749 5749 5749 5749 5748 5748 5748 5748 5747 5745 5744 5744 5743 5742 5741 5740 5739 5738 5736 5734 5732 5730 5728 5726 5723 5720 5717 5715 5712
5726 5725 5726 5728 5729 5731 5732 5733 5736 5738 5739 5741 5742 5743 5745 5745 5746 5746 5746 5746 5746 5746 5746 5745 5744 5744 5743 5742 5742 5741 5740 5738 5737 5735 5733 5731 5729 5727 5724 5722 5720 5717 5714 5711
5719 5719 5719 5721 5723 5725 5726 5728 5731 5733 5735 5736 5738 5739 5741 5742 5742 5743 5743 5743 5744 5744 5744 5744 5743 5743 5743 5742 5741 5741 5739 5738 5736 5734 5732 5730 5728 5726 5724 5721 5718 5716 5713 5710
5712 5712 5714 5716 5719 5721 5722 5724 5726 5729 5731 5732 5734 5735 5737 5738 5739 5740 5741 5742 5742 5742 5742 5742 5742 5742 5742 5741 5741 5740 5738 5737 5735 5733 5731 5729 5727 5725 5722 5720 5717 5714 5711 5708
5706 5707 5709 5711 5714 5716 5718 5721 5723 5725 5727 5729 5730 5732 5734 5735 5737 5738 5739 5739 5740 5740 5740 5741 5741 5741 5740 5740 5740 5739 5737 5736 5734 5732 5730 5728 5726 5723 5721 5718 5715 5712 5709 5706
5701 5703 5704 5707 5709 5712 5715 5717 5719 5721 5724 5726 5728 5730 5731 5733 5734 5736 5736 5737 5738 5738 5739 5739 5739 5739 5739 5738 5738 5737 5736 5734 5733 5731 5729 5727 5724 5722 5719 5717 5714 5710 5707 5704
5697 5699 5701 5703 5706 5708 5711 5714 5716 5719 5721 5724 5726 5728 5730 5731 5733 5734 5735 5735 5736 5737 5738 5738 5738 5738 5738 5737 5737 5736 5735 5733 5732 5730 5728 5725 5723 5720 5718 5715 5712 5708 5705 5701
5694 5696 5698 5701 5703 5706 5709 5711 5714 5717 5720 5722 5724 5727 5729 5730 5731 5732 5733 5734 5735 5736 5736 5737 5737 5737 5736 5736 5736 5735 5734 5732 5730 5728 5726 5724 5721 5719 5716 5713 5709 5706 5702 5698
5691 5693 5695 5698 5701 5704 5707 5710 5713 5716 5719 5721 5724 5726 5727 5729 5730 5731 5732 5733 5734 5735 5735 5736 5736 5736 5736 5735 5735 5734 5732 5731 5729 5727 5725 5722 5720 5717 5714 5710 5707 5703 5699 5696
5689 5691 5694 5696 5699 5702 5706 5709 5712 5715 5718 5720 5723 5725 5726 5728 5730 5731 5732 5733 5734 5734 5734 5735 5735 5735 5735 5734 5733 5732 5731 5730 5728 5726 5724 5721 5718 5715 5712 5708 5704 5700 5696 5693
5687 5689 5692 5695 5698 5701 5705 5708 5711 5714 5717 5720 5722 5724 5726 5727 5729 5730 5731 5732 5733 5733 5733 5733 5734 5734 5733 5733 5732 5731 5730 5728 5726 5724 5721 5719 5716 5713 5709 5705 5701 5697 5693 5689
5685 5688 5691 5694 5697 5700 5703 5707 5710 5713 5716 5718 5721 5723 5724 5726 5728 5729 5730 5731 5731 5732 5732 5732 5732 5732 5732 5732 5731 5730 5728 5726 5724 5722 5719 5716 5713 5710 5706 5703 5698 5694 5690 5686
5683 5686 5689 5692 5695 5699 5703 5706 5709 5712 5714 5717 5719 5721 5723 5725 5726 5727 5728 5729 5730 5730 5730 5731 5731 5731 5731 5730 5729 5728 5726 5724 5722 5719 5717 5714 5711 5707 5703 5699 5695 5691 5687 5682
5681 5684 5688 5692 5695 5698 5702 5705 5707 5711 5713 5715 5717 5719 5721 5722 5724 5725 5727 5727 5728 5728 5729 5729 5729 5729 5729 5728 5727 5726 5724 5722 5719 5717 5714 5711 5708 5704 5700 5696 5692 5688 5683 5679
5679 5683 5687 5690 5694 5697 5700 5703 5706 5709 5712 5714 5716 5718 5719 5721 5722 5723 5724 5725 5726 5726 5727 5727 5727 5727 5727 5726 5725 5724 5722 5720 5717 5714 5711 5708 5704 5700 5696 5692 5688 5684 5680 5675
Wind_Speed
23 23 23 22 21 21 22 23 24 23 23 22 21 19 18 19 19 19 19 19 18 17 17 18 18 17 17 17 17 17 17 16 16 16 16 16 16 15 15 14 15 15 15 15
24 23 24 23 22 22 22 23 23 23 23 22 21 19 20 19 18 19 19 18 17 17 17 17 17 16 16 16 16 15 15 15 14 14 15 15 14 14 14 13 13 14 14 14
24 24 25 23 21 22 22 23 22 22 21 20 19 18 18 19 18 18 18 18 18 18 18 16 16 15 15 15 15 15 14 14 14 13 14 14 13 13 13 12 12 12 12 12
24 24 24 20 20 21 22 21 20 19 18 17 17 17 17 17 17 16 16 17 17 17 16 16 15 14 14 14 14 14 14 13 13 13 13 12 12 12 12 12 12 12 12 11
23 25 24 20 19 20 21 19 19 18 17 16 17 16 16 16 16 16 15 16 16 15 14 14 13 12 13 13 13 13 13 12 12 12 12 12 12 12 12 12 12 12 11 11
24 24 24 20 19 19 19 18 17 17 16 15 15 15 15 15 15 15 14 14 13 13 13 13 12 12 12 12 12 12 12 12 12 11 11 12 12 12 12 11 11 12 11 11
23 23 23 21 19 18 18 18 16 15 14 13 14 14 14 15 15 14 14 12 11 12 11 11 11 11 11 11 11 11 11 11 11 11 11 11 12 11 11 11 11 12 12 12
21 22 21 19 18 18 18 17 16 14 14 13 13 14 13 13 13 14 13 11 10 10 10 10 10 10 10 10 10 10 10 10 10 10 10 11 11 11 11 11 11 11 11 11
21 20 19 18 17 17 17 17 16 15 13 12 12 13 12 12 12 12 12 11 10 9 9 9 9 9 10 10 9 9 9 9 9 9 9 10 10 10 10 10 10 10 10 11
19 19 18 18 18 18 18 17 16 14 13 12 12 12 11 11 11 11 10 9 10 9 8 8 8 9 9 9 8 7 7 7 8 8 8 9 10 10 10 10 11 11 10 10
17 16 17 17 18 19 18 16 15 14 14 12 11 11 11 10 10 9 8 7 7 8 8 8 8 8 7 7 6 6 6 7 7 7 8 9 9 10 10 10 11 10 11 11
19 18 19 17 17 18 19 17 15 13 12 11 11 10 10 10 9 7 6 6 5 5 6 6 6 5 5 5 5 5 5 6 7 7 8 9 9 10 11 11 11 11 11 12
20 19 19 18 18 18 19 18 15 14 12 12 11 10 10 9 7 6 6 5 4 4 4 5 5 4 4 4 4 4 5 6 7 7 8 9 10 10 10 11 11 12 12 12
20 20 19 18 17 17 18 18 17 15 13 12 11 9 8 7 6 5 5 4 3 3 3 3 4 4 4 4 4 4 6 7 7 8 9 9 10 10 10 11 12 12 13 13
18 20 19 18 17 16 17 17 16 14 12 11 10 9 8 7 6 5 4 3 3 3 3 3 3 3 3 4 4 5 6 7 8 8 9 10 10 10 10 11 12 13 13 14
18 19 18 17 17 17 17 16 14 11 10 9 9 9 7 6 6 5 4 3 2 2 2 3 3 3 3 3 4 5 7 8 8 9 10 10 10 11 11 12 13 13 14 14
16 16 17 17 18 17 17 15 12 10 8 8 8 7 7 6 5 5 4 4 3 3 2 2 2 3 3 3 4 6 7 8 9 10 10 10 11 12 12 13 14 14 15 15
14 15 15 16 17 17 15 13 12 10 9 8 7 6 6 6 5 4 4 4 4 3 2 2 2 3 3 3 4 5 6 7 9 9 10 11 11 12 13 13 14 15 16 17
13 13 14 14 16 15 14 12 11 9 9 9 8 7 7 6 5 4 4 3 4 3 2 2 2 2 3 3 4 5 6 7 9 9 10 11 12 12 13 14 15 16 17 17
12 13 14 14 14 13 13 13 12 11 9 9 9 8 7 6 5 4 4 3 3 3 2 1 2 2 3 3 4 5 6 8 9 10 11 11 12 13 14 16 17 17 17 18
13 13 13 14 14 14 14 13 12 11 10 10 9 8 7 6 5 4 3 3 3 2 1 1 1 1 3 4 5 5 7 8 9 10 11 12 13 14 15 16 17 18 18 19
12 13 14 14 15 15 15 14 12 12 11 11 10 9 8 7 6 4 3 3 2 2 1 1 1 2 3 4 5 6 8 9 9 10 11 12 14 15 16 18 19 19 20 20
13 14 14 14 14 15 15 14 13 12 12 11 10 9 8 7 5 4 3 3 2 1 1 1 2 2 3 4 5 7 8 9 10 11 13 14 15 17 18 19 20 20 21 21
14 15 15 15 15 15 15 15 13 13 12 11 10 9 8 6 5 4 4 4 2 2 1 2 2 3 4 5 6 7 9 10 11 12 14 15 16 18 19 20 21 22 22 23
16 16 15 15 15 15 15 15 13 13 12 11 10 9 8 6 6 5 4 3 3 2 2 3 3 4 4 6 7 8 10 11 12 13 15 16 17 19 20 21 22 23 24 24
16 16 16 17 17 17 16 15 14 13 12 11 9 9 7 7 6 5 4 3 3 3 3 3 4 4 5 6 8 9 11 12 13 15 16 18 19 20 21 22 22 23 24 25
18 17 17 17 18 17 16 15 14 13 12 10 10 9 8 7 6 5 4 3 3 3 3 3 4 4 5 7 8 10 12 14 15 16 18 19 20 21 22 22 24 25 25 26
Wind_Direction
274 276 278 280 282 282 280 281 284 287 289 293 296 296 297 299 301 305 308 309 310 312 313 310 308 306 306 308 310 312 316 320 321 322 322 321 320 319 319 317 315 315 313 313
272 273 276 278 282 284 283 282 281 282 285 287 290 294 298 298 297 301 304 305 307 310 309 309 308 306 307 309 311 313 319 322 323 324 325 327 325 324 323 321 321 318 317 314
274 273 274 276 280 280 281 281 282 282 285 285 287 292 296 298 297 298 300 301 304 305 306 306 306 306 307 311 314 318 321 322 323 326 330 332 331 330 332 330 327 325 323 320
277 276 276 281 278 277 277 279 280 279 284 285 287 291 294 295 295 296 297 301 304 307 309 308 307 305 306 310 312 315 318 321 323 326 330 332 335 336 336 335 333 332 332 332
277 278 278 280 280 277 276 277 279 279 282 283 286 292 295 294 295 297 298 300 303 307 310 312 311 309 309 312 313 314 316 320 323 324 327 330 334 336 335 335 336 337 338 338
275 277 278 280 278 279 279 280 279 277 281 282 283 289 294 294 296 299 303 302 302 304 309 312 312 311 313 316 317 317 318 320 323 325 327 329 332 333 335 336 340 341 341 339
273 274 277 279 278 278 277 280 277 276 280 283 284 289 294 297 300 301 303 305 302 304 309 314 314 313 312 315 318 321 324 325 327 329 329 330 333 335 336 336 338 339 339 340
272 273 274 274 271 269 269 272 272 274 279 283 285 288 292 296 300 303 304 304 303 304 307 313 318 317 316 319 320 322 326 330 333 335 336 336 337 337 340 341 340 340 341 343
270 271 270 268 266 264 266 266 268 269 271 272 277 284 287 292 300 304 306 305 309 315 316 319 320 321 323 323 324 326 327 330 335 340 343 345 346 346 349 350 350 348 346 348
271 271 266 262 259 259 259 261 261 261 263 266 273 279 284 290 302 305 306 312 312 313 321 325 322 323 323 323 326 330 335 338 342 342 346 348 352 355 356 357 356 355 351 349
267 267 262 261 258 254 255 259 257 259 262 263 267 273 280 285 296 301 303 311 313 310 312 317 317 319 324 327 330 331 337 345 349 349 350 351 355 357 357 356 355 355 354 353
265 267 265 261 257 253 252 254 252 254 260 260 265 270 276 283 292 294 296 300 306 314 317 320 327 334 334 337 341 342 344 350 352 353 351 351 353 354 355 356 356 354 354 353
263 263 261 261 256 248 246 245 244 245 253 255 258 264 271 278 281 278 282 288 295 309 320 332 345 358 358 350 356 5 0 357 353 353 351 349 348 348 350 351 352 352 351 349
261 257 255 254 249 245 243 241 240 243 245 250 250 251 258 264 266 264 274 274 277 297 323 344 350 1 9 2 9 17 12 3 355 351 351 349 347 347 348 348 347 348 347 346
258 254 251 245 239 238 239 237 236 237 241 243 241 244 248 250 251 249 260 258 267 290 310 331 338 345 10 13 12 10 8 2 356 352 350 350 350 348 346 345 345 345 343 342
252 247 244 238 234 234 234 232 230 230 232 232 233 235 232 233 236 240 244 238 248 274 292 302 312 329 353 359 359 354 355 358 357 353 351 352 351 348 345 344 344 343 341 340
247 242 237 232 229 231 230 227 228 225 224 226 223 219 218 218 221 231 229 225 237 259 278 287 300 322 336 345 339 344 349 353 353 353 354 353 350 347 346 345 344 341 339 339
241 235 231 225 225 224 221 219 220 220 218 209 206 204 202 204 207 215 211 216 228 238 255 283 303 324 330 344 348 345 348 350 350 350 349 347 345 344 344 344 343 340 339 338
228 224 222 220 217 216 210 209 211 206 200 196 194 192 192 196 198 198 196 208 220 229 243 275 306 338 357 357 357 354 355 354 351 350 348 346 344 343 343 343 342 341 340 339
220 220 220 218 212 208 205 207 206 198 191 187 187 184 184 184 184 185 190 200 207 217 234 264 292 338 357 358 356 355 354 351 350 351 351 349 347 346 345 344 343 342 341 340
219 215 211 209 204 201 200 198 195 190 186 187 186 179 173 171 173 175 183 189 195 202 213 265 323 354 9 357 353 0 358 355 354 354 354 352 349 346 344 343 342 341 341 341
214 208 202 201 200 198 192 190 188 187 189 187 184 179 173 173 174 176 179 186 191 201 227 295 318 343 5 6 7 4 357 354 353 352 352 351 349 347 345 344 344 343 342 340
207 200 197 195 189 185 185 184 184 187 186 185 185 184 178 178 181 185 193 194 205 227 262 288 301 330 356 353 352 354 353 351 350 350 349 348 347 345 344 344 344 343 342 340
200 196 191 188 183 180 183 185 185 186 185 183 186 186 185 190 191 194 202 205 211 237 276 290 294 317 337 343 344 348 350 349 348 347 345 343 342 341 341 341 342 342 342 341
195 194 192 187 182 181 185 188 187 185 186 186 186 188 193 197 198 197 202 215 230 255 285 299 304 312 325 338 340 342 344 346 345 343 341 341 340 339 339 340 340 341 341 340
190 187 186 185 183 184 187 189 190 187 187 185 187 190 192 195 197 201 208 225 246 264 286 302 309 314 326 337 341 341 344 344 343 342 341 340 340 340 340 339 339 339 339 339
186 186 186 186 184 183 185 185 185 185 185 187 185 186 189 195 198 202 209 227 247 263 278 293 303 311 322 330 334 336 340 340 341 340 339 339 339 339 340 339 338 338 338 339